x

Port Washington, Wi (pwaw3) Weather Station

6:40pm - Tue 30th Aug 2016 All times are CDT. -5 hours from GMT.

  • Wind
    5mph, 7mph gusts
  • Air Temp 78°f
  • Sea Pressure 1017.3mb
  • Port Washington, Wi
  • Port Washington, Wi

More Historic Weather Station data

Upgrade to MSW Pro to gain access to the past 30 days of data for over 8000 Wavebouys and Weather Stations around the globe.

Join Pro

Comparision Forecast

View Surf forecast
   
Tue 08/30 6:40pm 5 7 mph 1017.3mb 78f
6:30pm 5 7 mph 1017.3mb 78f
6:20pm 5 7 mph 1017.3mb 78f
6:10pm 6 8 mph 1017.3mb 79f
6:00pm 7 9 mph 1017.3mb 80f
5:40pm 6 8 mph 1017.6mb 79f
5:30pm 7 10 mph 1017.6mb 79f
5:20pm 6 9 mph 1017.6mb 79f
5:10pm 5 11 mph 1017.6mb 80f
5:00pm 7 11 mph 1017.9mb 79f
4:40pm 6 9 mph 1018.3mb 79f
4:30pm 8 11 mph 1017.9mb 80f
4:20pm 8 16 mph 1018.3mb 78f
4:10pm 9 11 mph 1018.3mb 78f
4:00pm 7 13 mph 1018.3mb 76f
3:40pm 5 6 mph 1018.3mb 74f
3:30pm 3 7 mph 1018.3mb 73f
3:20pm 3 7 mph 1018.6mb 74f
3:10pm 2 7 mph 1018.6mb 74f
3:00pm 5 9 mph 1019mb 72f
2:40pm 5 8 mph 1019mb 74f
2:30pm 6 7 mph 1019.3mb 75f
2:20pm 2 6 mph 1019.3mb 74f
2:10pm 5 7 mph 1019.3mb 74f
2:00pm 5 8 mph 1019.6mb 73f
1:40pm 3
mph
1019.6mb 71f
1:30pm 1 3 mph 1019.6mb 71f
1:20pm 2 16 mph 1019.6mb 71f
1:10pm 6 7 mph 1019.6mb 71f
1:00pm  -  5 mph 1020.3mb 71f
12:40pm 7 11 mph 1020.3mb 73f
12:30pm 1 7 mph 1020mb 74f
12:20pm 3 10 mph 1020mb 74f
12:10pm 2 8 mph 1020.3mb 76f
12:00pm 2 14 mph 1020.3mb 75f
11:40am 7 8 mph 1020.7mb 75f
11:30am 5 6 mph 1020.3mb 74f
11:20am 2 6 mph 1020.3mb 74f
11:10am 5 6 mph 1020.3mb 73f
11:00am 5 6 mph 1020.7mb 74f
10:40am 6 7 mph 1020.7mb 73f
10:30am 5 6 mph 1020.7mb 74f
10:20am 1 2 mph 1020.7mb 74f
10:10am 2 3 mph 1020.7mb 73f
10:00am  -  3 mph 1020.7mb 75f
9:40am 3 5 mph 1020.3mb 76f
9:30am  -  5 mph 1020.3mb 76f
9:20am 3 6 mph 1020.3mb 74f
9:10am 3
mph
1020.3mb 74f
9:00am 3 6 mph 1020.7mb 75f
8:40am 5 6 mph 1020.7mb 76f
8:30am 2 5 mph 1020.7mb 73f
8:20am 3 5 mph 1020.7mb 71f
8:10am 3 7 mph 1020.7mb 71f
8:00am 5 6 mph 1020.7mb 72f
7:40am 3 7 mph 1020.7mb 71f
7:30am 8 10 mph 1021mb 71f
7:20am 5 7 mph 1021mb 72f
7:10am 5 8 mph 1021mb 70f
7:00am 6 7 mph 1021mb 70f
6:40am 5 7 mph 1021mb 70f
6:30am  -  2 mph 1021mb 70f
6:20am 1 2 mph 1021mb 70f
6:10am 1 6 mph 1021mb 71f
6:00am 2 3 mph 1021mb 71f
5:40am 5 7 mph 1020.7mb 71f
5:30am 2 3 mph 1020.7mb 69f
5:20am  -  2 mph 1020.7mb 68f
5:10am 1 2 mph 1020.7mb 69f
5:00am  -  5 mph 1021mb 69f
4:40am  -  3 mph 1020.7mb 70f
4:30am 3 6 mph 1020.7mb 71f
4:20am 3 7 mph 1021mb 72f
4:10am 1 3 mph 1020.7mb 71f
4:00am 3 5 mph 1021mb 72f
3:40am  -  5 mph 1021.3mb 72f
3:30am 2 6 mph 1021.3mb 72f
3:20am 3 5 mph 1021.7mb 71f
3:10am  -  3 mph 1021.7mb 71f
3:00am 2 5 mph 1021.7mb 72f
2:40am 2 3 mph 1021.7mb 72f
2:30am 1 3 mph 1022mb 72f
2:20am 2
mph
1022mb 72f
2:10am 1 3 mph 1022.4mb 73f
2:00am 2 5 mph 1022.4mb 73f
1:40am 2 3 mph 1022.4mb 73f
1:30am 1 5 mph 1022.4mb 73f
1:20am 1 5 mph 1022.7mb 73f
1:10am 1 5 mph 1022.7mb 72f
1:00am 2 3 mph 1022.7mb 72f
12:40am 2 5 mph 1022.7mb 71f
12:30am 1 3 mph 1022.4mb 71f
12:20am 1 2 mph 1022.4mb 70f
12:10am 1 3 mph 1022.4mb 71f
12:00am 2 5 mph 1022.4mb 71f
Mon 08/29 11:40pm 3 5 mph 1022.4mb 72f
11:30pm 2 3 mph 1022.4mb 72f
11:20pm 2 3 mph 1022.4mb 72f
11:10pm  -  3 mph 1022.4mb 71f
11:00pm 2 3 mph 1022.4mb 71f
10:40pm  -  5 mph 1022.4mb 72f
10:30pm 3 5 mph 1022.4mb 72f
10:20pm  -  5 mph 1022.4mb 72f
10:10pm 3 5 mph 1022.4mb 73f
10:00pm 2 3 mph 1022.4mb 72f
9:40pm 2
mph
1022.4mb 72f
9:30pm 1 3 mph 1022.4mb 72f
9:20pm  -  3 mph 1022.4mb 72f
9:10pm 1 5 mph 1022.4mb 72f
9:00pm 1 3 mph 1022.4mb 73f
8:40pm 2 5 mph 1022.4mb 72f
8:30pm 1 5 mph 1022.4mb 72f
8:20pm 3 7 mph 1022mb 72f
8:10pm 5 7 mph 1022mb 72f
8:00pm 5 6 mph 1022.4mb 72f
7:50pm 2 3 mph 1022.4mb 72f
7:40pm 3 6 mph 1022.4mb 72f
7:30pm 3 5 mph 1022.4mb 72f
7:20pm 3 6 mph 1022.4mb 73f
7:10pm 3 7 mph 1022.4mb 73f
7:00pm 5 7 mph 1022.4mb 73f
6:50pm 5 8 mph 1022.7mb 74f
6:40pm 3 7 mph 1022.7mb 74f
6:30pm 5 7 mph 1022.7mb 74f
6:20pm 3 9 mph 1022.7mb 74f
6:10pm 7 9 mph 1022.7mb 74f
6:00pm 7 9 mph 1022.7mb 75f
5:50pm 6 8 mph 1022.7mb 76f
5:40pm 6 7 mph 1022.7mb 76f
5:30pm 5 6 mph 1023mb 76f
5:20pm 6
mph
1023mb 76f
5:10pm 5 7 mph 1023mb 77f
5:00pm 5 6 mph 1023mb 76f
4:50pm 2 5 mph 1023mb 75f
4:40pm 2 6 mph 1023mb 74f
4:30pm 3 5 mph 1023mb 74f
4:20pm 2 3 mph 1023mb 74f
4:10pm 1 2 mph 1023mb 73f
4:00pm  -  2 mph 1023.4mb 74f
3:50pm 2 3 mph 1023mb 73f
3:40pm 1 3 mph 1023.4mb 73f
3:30pm 1 3 mph 1023.4mb 74f
3:20pm 1 3 mph 1023.4mb 73f
3:10pm 3
mph
1023.7mb 72f
3:00pm 3 5 mph 1024mb 73f
2:50pm 3
mph
1024mb 72f
2:40pm 2 3 mph 1024mb 72f
2:30pm 2 5 mph 1024.4mb 73f
2:20pm 3 5 mph 1024.4mb 73f
2:10pm 3 5 mph 1024.7mb 73f
2:00pm 2 5 mph 1024.7mb 72f
1:50pm 3 5 mph 1025.1mb 72f
1:40pm 3 5 mph 1025.1mb 71f
1:30pm 3 6 mph 1025.1mb 71f
1:20pm 5 6 mph 1025.1mb 70f
1:10pm 3 5 mph 1025.4mb 71f
1:00pm 3 5 mph 1025.4mb 71f
12:50pm 3 5 mph 1025.4mb 71f
12:40pm 3
mph
1025.7mb 72f
12:30pm 2 5 mph 1025.7mb 72f
12:20pm 3 6 mph 1025.7mb 72f
12:10pm 5
mph
1025.7mb 73f
12:00pm 3 6 mph 1025.7mb 72f
11:50am 5
mph
1025.7mb 72f
11:40am 3 5 mph 1025.7mb 72f
11:30am 2 6 mph 1026.1mb 70f
11:20am 5 6 mph 1026.1mb 70f
11:10am 3 6 mph 1026.1mb 71f
11:00am 3 5 mph 1026.1mb 71f
10:50am 3 5 mph 1025.7mb 71f
10:40am 3 5 mph 1025.7mb 71f
10:30am 5
mph
1025.7mb 70f
10:20am 3 6 mph 1025.4mb 71f
10:10am 5
mph
1025.4mb 72f
10:00am 5 6 mph 1025.4mb 71f
9:50am 3 5 mph 1025.4mb 71f
9:40am 3 5 mph 1025.1mb 71f
9:30am 2 3 mph 1025.4mb 70f
9:20am 2
mph
1025.4mb 69f
9:10am 2 3 mph 1025.4mb 70f
9:00am 1 2 mph 1025.4mb 70f
8:40am 2 3 mph 1025.4mb 71f
8:30am 2
mph
1025.1mb 71f
8:20am 1 2 mph 1025.1mb 71f
8:10am  -  2 mph 1025.4mb 73f
8:00am  -  2 mph 1025.1mb 74f
7:50am 1 2 mph 1025.1mb 73f
7:40am 2 3 mph 1025.1mb 75f
7:30am  -  1 mph 1025.1mb 73f
7:20am  -  1 mph 1025.1mb 72f
7:10am 1 2 mph 1025.1mb 69f
7:00am  -  3 mph 1025.1mb 67f
6:50am 2 3 mph 1025.1mb 66f
6:40am 3
mph
1024.7mb 65f
6:30am 2 5 mph 1024.7mb 64f
6:20am 2 3 mph 1024.7mb 64f
6:10am  -  2 mph 1024.7mb 65f
6:00am 2
mph
1024.7mb 65f
5:50am 1 2 mph 1024.7mb 65f
5:40am 2 3 mph 1024.7mb 65f
5:30am 1 2 mph 1024.7mb 64f
5:20am 2
mph
1024.7mb 64f
5:10am 2
mph
1024.7mb 64f
5:00am  -  2 mph 1024.7mb 64f
4:50am 2 3 mph 1024.7mb 63f
4:40am  -  1 mph 1024.7mb 63f
4:30am  -  1 mph 1024.7mb 64f
4:20am  -  1 mph 1024.4mb 64f
4:10am  -  3 mph 1024.4mb 64f
4:00am 2 3 mph 1024.4mb 64f
3:50am 2 3 mph 1024.4mb 64f
3:40am 1 2 mph 1024.4mb 64f
3:30am 1 2 mph 1024mb 64f
3:20am 1 2 mph 1024.4mb 64f
3:10am 1 2 mph 1024mb 64f
3:00am 2 3 mph 1024mb 64f
2:50am 2 3 mph 1024mb 64f
2:40am 2 3 mph 1024.4mb 64f
2:30am 2 3 mph 1024.4mb 64f
2:20am 2
mph
1024mb 65f
2:10am 1 2 mph 1024.4mb 64f
2:00am  -  1 mph 1024.4mb 65f
1:40am 2 3 mph 1024.4mb 65f
1:30am 2 3 mph 1024.4mb 65f
1:20am 2 3 mph 1024.4mb 65f
1:10am 1 2 mph 1024.4mb 65f
1:00am  -  2 mph 1024.4mb 66f
12:50am 2
mph
1024.7mb 65f
12:40am 1 2 mph 1024.7mb 66f
12:30am 2 3 mph 1024.7mb 66f
12:20am 2
mph
1024.4mb 66f
12:10am 2 3 mph 1024.4mb 66f
12:00am 2
mph
1024.4mb 66f
Sun 08/28 11:50pm  -  2 mph 1024.4mb 66f
11:40pm  -  1 mph 1024.4mb 66f
11:30pm 1 2 mph 1024.4mb 66f
11:20pm 2
mph
1024.4mb 66f
11:10pm 2
mph
1024.4mb 67f
11:00pm 1 2 mph 1024mb 67f
10:50pm 2 3 mph 1024.4mb 67f
10:40pm 1 2 mph 1024mb 67f
10:30pm 2
mph
1024mb 67f
10:20pm  -  2 mph 1024mb 68f
10:10pm 1 2 mph 1023.7mb 68f
10:00pm 1 2 mph 1024mb 68f
9:50pm 2
mph
1024mb 68f
9:40pm 2 3 mph 1024mb 68f
9:30pm  -  3 mph 1024mb 68f
9:20pm 2
mph
1023.7mb 68f
9:10pm  -  2 mph 1023.7mb 68f
9:00pm  -  2 mph 1023.7mb 68f
8:50pm 2 3 mph 1023.7mb 68f
8:40pm 2 3 mph 1023.7mb 68f
8:30pm 1 2 mph 1023.4mb 68f
8:20pm  -  2 mph 1023.7mb 68f
8:10pm 1 2 mph 1023.4mb 69f
8:00pm 2 3 mph 1023.4mb 69f
7:50pm  -  1 mph 1023mb 69f
7:40pm  -  3 mph 1023mb 69f
7:30pm 2 3 mph 1023mb 69f
7:20pm 2 3 mph 1023mb 70f
7:10pm 1 5 mph 1023mb 71f
7:00pm 3 5 mph 1023mb 71f
6:50pm 2 5 mph 1023mb 71f
6:40pm 3
mph
1023mb 71f
6:30pm 1 2 mph 1023mb 70f
6:20pm 1 3 mph 1023mb 70f
6:10pm 1 2 mph 1022.7mb 71f
6:00pm 1 2 mph 1022.7mb 71f
5:40pm 2 3 mph 1022.7mb 71f
5:30pm 1 5 mph 1023mb 71f
5:20pm 3 6 mph 1023mb 72f
5:10pm 2 3 mph 1023mb 73f
5:00pm 1 5 mph 1023.4mb 74f
4:50pm 3 6 mph 1023.4mb 73f
4:40pm 5 7 mph 1023.4mb 74f
4:30pm 5 6 mph 1023.4mb 72f
4:20pm 3 5 mph 1023.4mb 73f
4:10pm 3 6 mph 1023.4mb 73f
4:00pm 3 6 mph 1023.4mb 73f
3:50pm 5 7 mph 1023.7mb 73f
3:40pm 6 7 mph 1023.7mb 73f
3:30pm 5 7 mph 1023.7mb 71f
3:20pm 6 7 mph 1023.4mb 72f
3:10pm 2 6 mph 1023.4mb 71f
3:00pm 6 9 mph 1023.4mb 71f
2:50pm 7 9 mph 1023.4mb 70f
2:40pm 7 9 mph 1023mb 71f
2:30pm 7 9 mph 1023mb 71f
2:20pm 6 7 mph 1023mb 71f
2:10pm 6 8 mph 1023.4mb 71f
2:00pm 6 7 mph 1023.4mb 71f
1:50pm 6 9 mph 1023.7mb 71f
1:40pm 7 9 mph 1023.7mb 70f
1:30pm 7 9 mph 1023.7mb 69f
1:20pm 7 8 mph 1024mb 70f
1:10pm 7 8 mph 1024mb 70f
1:00pm 3 7 mph 1024mb 70f
12:50pm 6 7 mph 1024mb 70f
12:40pm 5 6 mph 1024mb 70f
12:30pm 2 7 mph 1024mb 71f
12:20pm 5 7 mph 1024mb 71f
12:10pm 3 10 mph 1024mb 71f
12:00pm 9 10 mph 1024mb 69f
11:50am 6 9 mph 1024mb 71f
11:40am 6 10 mph 1024.4mb 72f
11:30am 8 9 mph 1024.4mb 71f
11:20am 6 9 mph 1024.4mb 72f
11:10am 6 10 mph 1024.4mb 71f
11:00am 7 9 mph 1024.4mb 71f
10:40am 5 9 mph 1024.4mb 70f
10:30am 7 10 mph 1024.4mb 70f
10:20am 6 8 mph 1024.4mb 70f
10:10am 6 9 mph 1024.4mb 69f
10:00am 5 7 mph 1024.4mb 69f
9:50am 5 6 mph 1024.4mb 68f
9:40am 3 5 mph 1024mb 67f
9:30am 2 3 mph 1024.4mb 67f
9:20am  -  3 mph 1024.4mb 67f
9:10am 2 3 mph 1024mb 68f
9:00am 3 6 mph 1024mb 68f
8:50am 2 3 mph 1023.7mb 68f
8:40am  -  6 mph 1023.7mb 67f
8:30am 1 7 mph 1023.7mb 66f
7:40am 5 11 mph 1023mb 65f
7:30am 3 8 mph 1022.7mb 65f
7:20am 3 8 mph 1022.7mb 64f
7:10am 5 8 mph 1022.7mb 64f
7:00am 2 7 mph 1022.7mb 64f
6:50am 5 6 mph 1022.4mb 63f
6:40am 1 2 mph 1022.7mb 63f
6:30am 1 5 mph 1022.4mb 63f
6:20am 1 3 mph 1022.4mb 63f
6:10am 2 6 mph 1022.4mb 63f
6:00am 3 6 mph 1022mb 64f
5:50am 3 6 mph 1022mb 63f
5:40am 6 8 mph 1021.7mb 63f
5:30am 6 7 mph 1021.7mb 64f
5:20am 3 6 mph 1021.7mb 64f
5:10am 3 5 mph 1021.3mb 63f
5:00am 2 3 mph 1021.3mb 63f
4:50am 1 2 mph 1021.3mb 62f
4:40am  -  5 mph 1021.3mb 62f
4:30am 3 5 mph 1021.3mb 62f
4:20am 2
mph
1021.3mb 62f
4:10am 2 3 mph 1021mb 62f
4:00am 1 5 mph 1021mb 62f
3:50am 1 2 mph 1021mb 62f
3:40am  -  2 mph 1020.7mb 62f
3:30am 1 5 mph 1020.7mb 62f
3:20am 3 5 mph 1021mb 62f
3:10am 2 5 mph 1020.7mb 63f
3:00am  -  2 mph 1020.7mb 63f
2:50am 1 3 mph 1020.7mb 63f
2:40am 1 3 mph 1020.7mb 63f
2:30am 1 3 mph 1020.7mb 62f
2:20am 2
mph
1020.7mb 62f
2:10am 3 5 mph 1020.3mb 62f
2:00am 1 2 mph 1020.3mb 62f
1:50am  -  2 mph 1020mb 62f
1:40am 1 2 mph 1020mb 62f
1:30am 2
mph
1020mb 62f
1:20am  -  1 mph 1020mb 63f
1:10am  -  mph 1020mb 62f
1:00am  -  1 mph 1020mb 63f
12:50am 1 2 mph 1020mb 63f
12:40am  -  1 mph 1019.6mb 63f
12:30am  -  1 mph 1019.6mb 63f
12:20am  -  3 mph 1020mb 62f
12:10am 3
mph
1020mb 63f
12:00am 1
mph
1019.6mb 63f
Sat 08/27 11:50pm  -  mph 1019.6mb 63f
11:40pm  -  mph 1019.6mb 63f
11:30pm  -  2 mph 1019.6mb 63f
11:20pm 1
mph
1019.3mb 63f
11:10pm  -  2 mph 1019.6mb 64f
11:00pm 1 2 mph 1019.6mb 63f
10:50pm 2 3 mph 1019.3mb 63f
10:40pm 1
mph
1019.3mb 63f
10:30pm  -  3 mph 1019.3mb 63f
10:20pm 1 2 mph 1019.3mb 64f
10:10pm  -  6 mph 1019mb 64f
10:00pm  -  1 mph 1019mb 65f
9:50pm 2 5 mph 1019mb 66f
9:40pm 2 5 mph 1018.6mb 66f
9:30pm 1 3 mph 1018.6mb 65f
9:20pm  -  5 mph 1018.6mb 64f
9:10pm 3 6 mph 1018.6mb 63f
9:00pm 5 6 mph 1018.3mb 63f
8:50pm 5 7 mph 1018.3mb 64f
8:40pm 5 8 mph 1018.3mb 63f
8:30pm 6 8 mph 1018.3mb 63f
8:20pm 6 8 mph 1017.9mb 64f
8:10pm 8
mph
1017.6mb 64f
8:00pm 6 9 mph 1017.6mb 64f
7:50pm 8 10 mph 1017.6mb 65f
7:40pm 6 8 mph 1017.6mb 64f
7:30pm 6 8 mph 1017.3mb 64f
7:20pm 6 8 mph 1017.3mb 64f
7:10pm 7 8 mph 1017.3mb 65f
7:00pm 5 6 mph 1017.3mb 66f
6:50pm 6 7 mph 1016.9mb 67f
6:40pm 2 3 mph 1017.3mb 67f
6:30pm 1 2 mph 1016.9mb 67f
6:20pm 2
mph
1016.9mb 67f
6:10pm 1 2 mph 1016.9mb 68f
6:00pm 2
mph
1016.9mb 68f
5:50pm  -  3 mph 1016.9mb 68f
5:40pm 2 3 mph 1016.6mb 68f
5:30pm 2 3 mph 1016.9mb 68f
5:20pm 2 3 mph 1016.9mb 68f
5:10pm 3 5 mph 1016.9mb 67f
5:00pm 3 5 mph 1016.9mb 66f
4:50pm 2 5 mph 1016.6mb 67f
4:40pm 3 6 mph 1016.6mb 68f
4:30pm 5 6 mph 1016.6mb 68f
4:20pm 5 6 mph 1016.6mb 69f
4:10pm 5 6 mph 1016.6mb 69f
4:00pm 5 6 mph 1016.6mb 68f
3:50pm 5 6 mph 1016.9mb 68f
3:40pm 2 6 mph 1016.9mb 67f
3:30pm 2 8 mph 1017.3mb 67f
3:20pm 6 7 mph 1017.3mb 67f
3:10pm 6 9 mph 1017.3mb 66f
3:00pm 7 9 mph 1017.3mb 66f
2:50pm 6 9 mph 1017.3mb 66f
2:40pm 8
mph
1017.3mb 66f
2:30pm 7 8 mph 1017.3mb 66f
2:20pm 5 6 mph 1017.3mb 66f
2:10pm 6
mph
1017.3mb 67f
2:00pm 6
mph
1017.6mb 68f
1:50pm 6
mph
1017.6mb 68f
1:40pm  -  3 mph 1017.9mb 68f
1:30pm 2 3 mph 1017.9mb 68f
1:20pm 1 5 mph 1018.3mb 68f
1:10pm 3 5 mph 1018.3mb 69f
1:00pm 2 5 mph 1018.3mb 69f
12:50pm  -  6 mph 1018.3mb 68f
12:40pm 3 8 mph 1018.3mb 67f
12:30pm 5 8 mph 1018.3mb 67f
12:20pm 5 9 mph 1018.3mb 67f
12:10pm 3 7 mph 1018.3mb 66f
12:00pm 5 9 mph 1018.3mb 66f
11:50am 8 13 mph 1018.3mb 66f
11:40am 8 15 mph 1018.3mb 65f
10:40am 11 15 mph 1018.6mb 64f
10:30am 9 14 mph 1019mb 64f
10:20am 10 15 mph 1019mb 64f
10:10am 10 13 mph 1019.3mb 64f
10:00am 10 15 mph 1019.6mb 64f
9:50am 11 15 mph 1019.3mb 63f
9:40am 11 15 mph 1019.6mb 63f
9:30am 10 16 mph 1019.6mb 63f
9:20am 10 13 mph 1020mb 62f
9:10am 10 13 mph 1020mb 62f
9:00am 9 11 mph 1020mb 61f
8:50am 9 13 mph 1020mb 61f
8:40am 10 11 mph 1020.3mb 61f
8:30am 8 11 mph 1020.7mb 61f
8:20am 8 10 mph 1020.7mb 61f
8:10am 8 11 mph 1020.7mb 62f
8:00am 10 13 mph 1020.7mb 62f
7:50am 7 10 mph 1021mb 61f
7:40am 6 10 mph 1021mb 61f
7:30am 6 8 mph 1021mb 61f
7:20am 7 10 mph 1021mb 61f
7:10am 8 11 mph 1021mb 62f
7:00am 7 10 mph 1021mb 62f
6:50am 7 10 mph 1021mb 62f
6:40am 6 13 mph 1020.7mb 62f
6:30am 8 10 mph 1020.7mb 62f
6:20am 9 13 mph 1020.7mb 62f
6:10am 9 14 mph 1020.3mb 62f
6:00am 11 15 mph 1020.7mb 62f
5:50am 9 15 mph 1020.7mb 62f
5:40am 10 14 mph 1020.3mb 62f
5:30am 8 13 mph 1020.3mb 61f
5:20am 10 13 mph 1020mb 62f
5:10am 8 11 mph 1020mb 62f
5:00am 8 13 mph 1020.3mb 62f
4:50am 8 10 mph 1020.3mb 62f
4:40am 6 9 mph 1020.7mb 62f
4:30am 7 10 mph 1020.7mb 62f
4:20am 1 9 mph 1021.7mb 63f
4:10am 7 8 mph 1021.3mb 64f
4:00am 2 8 mph 1021.3mb 64f
3:50am 2 5 mph 1020.7mb 65f
3:40am 3 8 mph 1020.7mb 65f
3:30am 5 7 mph 1020.7mb 65f
3:20am 3 7 mph 1020.7mb 65f
3:10am 3 5 mph 1020.7mb 66f
3:00am 3
mph
1020.7mb 66f
2:50am  -  3 mph 1021mb 67f
2:40am 1 3 mph 1021.3mb 66f
2:30am 2 7 mph 1020.7mb 65f
2:20am 6 7 mph 1020mb 65f
2:10am 6 8 mph 1020mb 65f
2:00am 3 5 mph 1020.3mb 66f
1:50am 2 6 mph 1020.7mb 65f
1:40am 5 6 mph 1020.7mb 64f
1:30am 5 7 mph 1021mb 64f
1:20am 6 8 mph 1021mb 65f
1:10am 5 6 mph 1021mb 65f